[[{"header":{"parameterUnit":"m.s-1","parameterCategory":1,"la1":30.2991,"la2":30.254,"lo1":-89.0895,"lo2":-89.0444,"dy":0.0017,"dx":0.0017,"nx":28,"ny":28,"refTime":"2024-12-13T09:00:00:Z","depth":0,"parameterNumber":2,"parameterNumberName":"U-component_of_WINDS"},"data":[0,0,0,0,0,0,0,0,0,0,0,0,0,0,0,0,0,0,0,0,0,0,0,0,0,0,0,0,0,0,0,0,0,0,0,0,0,0,0,0,0,0,0,0,0,0,0,0,0,0,0,0,0,0,0,0,0,0,-5.7672,-5.7673,0,-5.773,-5.7731,-5.7731,-5.7581,-5.7576,-5.7571,-5.7567,-5.7626,-5.7632,-5.7638,0,0,0,0,0,0,0,0,0,0,0,0,0,-5.7431,-5.7436,-5.7672,-5.7673,-5.7673,-5.773,-5.7731,-5.7731,-5.7581,-5.7576,-5.757,-5.7565,-5.7625,-5.7632,-5.7639,0,0,0,0,0,0,0,0,0,0,0,0,0,-5.7517,-5.7438,-5.7672,-5.7605,-5.76,-5.773,-5.7731,-5.7732,-5.7583,-5.7576,-5.7569,-5.7562,-5.7622,-5.7631,-5.764,-5.7837,0,0,-5.7667,-5.7671,0,0,0,0,0,0,0,0,-5.7512,-5.7526,-5.7614,-5.761,-5.7604,-5.7641,-5.7667,-5.7767,-5.7584,-5.7589,-5.7567,-5.7558,-5.7637,-5.7644,-5.7671,-5.7839,-5.7842,-5.7668,-5.7673,-5.7677,-5.768,0,0,0,0,0,0,0,-5.7507,-5.7523,-5.7695,-5.7616,-5.761,-5.7573,-5.7577,-5.7686,-5.7652,-5.7588,-5.7577,-5.7586,-5.7633,-5.7662,-5.7671,-5.7843,-5.7668,-5.7676,-5.7681,-5.7685,-5.8177,-5.8184,0,0,0,0,0,0,-5.7509,-5.7519,-5.7693,-5.7696,-5.754,-5.7583,-5.7588,-5.7636,-5.765,-5.7646,-5.7592,-5.7579,-5.7651,-5.7661,-5.7673,-5.7905,-5.7677,-5.7686,-5.7691,-5.8169,-5.8178,-5.8187,0,0,0,0,0,0,-5.7505,-5.7526,-5.769,-5.7605,-5.7623,-5.7594,-5.765,-5.7641,-5.767,-5.7654,-5.7647,-5.7629,-5.7645,-5.766,-5.7797,-5.7905,-5.769,-5.7698,-5.816,-5.8172,-5.8183,-5.8371,0,0,0,0,0,0,-5.7498,-5.7525,-5.76,-5.7608,-5.7628,-5.7815,-5.7657,-5.7647,-5.7686,-5.767,-5.7686,-5.7682,-5.7641,-5.7785,-5.7806,-5.7913,-5.7705,-5.815,-5.8165,-5.8179,-5.8355,-5.8387,-5.8415,0,0,0,0,0,-5.749,-5.765,-5.7605,-5.7626,-5.7721,-5.7821,-5.7833,-5.7783,-5.7696,-5.777,-5.776,-5.7681,-5.7889,-5.78,-5.7823,-5.7934,-5.8143,-5.8161,-5.8178,-5.8341,-5.8381,-5.8414,0,0,0,0,0,0,-5.7656,-5.765,-5.7599,-5.7767,-5.7796,-5.7796,-5.7888,-5.7826,-5.788,-5.7862,-5.7797,-5.7802,-5.7952,-5.7956,-5.7857,-5.8126,-5.8001,-5.8024,-5.8118,-5.8155,-5.8185,-5.8181,-5.7712,0,0,0,0,0,-5.7712,-5.7795,-5.7785,-5.7933,-5.7951,-5.7918,-5.7959,-5.7918,-5.7946,-5.7957,-5.7956,-5.7986,-5.8057,-5.8106,-5.8171,-5.8354,-5.8356,-5.8442,-5.8472,-5.8497,-5.8518,-5.8616,-5.8654,-5.8243,-5.8243,-5.8243,0,0,-5.7829,-5.7836,-5.7892,-5.7967,-5.7985,-5.8072,-5.7929,-5.8027,-5.8091,-5.7972,-5.8102,-5.8102,-5.8131,-5.8292,-5.8363,-5.8301,-5.8632,-5.8519,-5.8539,-5.8546,-5.8638,-5.8677,-5.8711,-5.8255,-5.8253,-5.8251,0,0,-5.8086,-5.81,-5.8225,-5.8246,-5.8275,-5.8252,-5.8282,-5.8292,-5.8288,-5.8417,-5.833,-5.8405,-5.853,-5.8554,-5.8583,-5.885,-5.8781,-5.8873,-5.9031,-5.9128,-5.916,-5.9188,-5.9285,-5.932,-5.8894,-5.8894,-5.8895,0,-5.8228,-5.8356,-5.8298,-5.8402,-5.8438,-5.8335,-5.8462,-5.8485,-5.8533,-5.8561,-5.8489,-5.8645,-5.8657,-5.8823,-5.8888,-5.8914,-5.8948,-5.8872,-5.916,-5.9188,-5.9213,-5.9305,-5.9341,-5.8905,-5.8904,-5.8903,-5.8902,0,-5.8529,-5.8619,-5.8717,-5.8767,-5.8814,-5.8929,-5.8889,-5.8943,-5.8898,-5.8883,-5.9016,-5.9027,-5.9093,-5.9129,-5.9085,-5.9289,-5.925,-5.9171,-5.9044,-5.9265,-5.935,-5.9384,-5.8921,-5.8917,-5.8914,-5.8911,0,0,-5.8893,-5.891,-5.8947,-5.8969,-5.8993,-5.9061,-5.9172,-5.9237,-5.9285,-5.9322,-5.9414,-5.9522,-5.9449,-5.9482,-5.944,-5.9525,-5.9737,-5.9435,-5.9434,-5.9492,-5.9964,-6.0024,-6.0066,-5.9691,-5.9697,-5.9702,-5.9962,0,-5.9148,-5.9339,-5.929,-5.9479,-5.9562,-5.9465,-5.9561,-5.9587,-5.9576,-5.9644,-5.9631,-5.9709,-5.9606,-5.9626,-5.9705,-5.9695,-5.9831,-5.9675,-5.9776,-5.9781,-5.9774,-6.011,-6.0174,-6.0419,-5.9994,-6.0,-6.0004,0,-5.9471,-5.9522,-5.972,-5.973,-5.9763,-5.9851,-5.9907,-5.9973,-6.0,-5.9986,-6.0023,-5.9965,-6.0074,-5.9947,-6.0097,-5.9992,-6.003,-6.0032,-6.004,-6.0048,-5.9907,-6.0129,-6.0495,-6.0533,-6.0055,-6.0051,-6.0048,0,-5.9719,-5.9836,-5.9969,-5.9991,-6.0007,-6.0071,-6.008,-6.01,-6.0142,-6.0191,-6.0218,-6.0278,-6.0312,-6.0361,-6.032,-6.0231,-6.0478,-6.0347,-6.047,-6.0472,-6.0527,-6.0525,-6.0907,-6.0551,-6.055,-6.0549,-6.0548,0,-6.001,-6.0135,-6.0081,-6.0164,-6.0301,-6.0244,-6.0381,-6.038,-6.0398,-6.0479,-6.0398,-6.0475,-6.0416,-6.0489,-6.0458,-6.0588,-6.0603,-6.0596,-6.0586,-6.0604,-6.0605,-6.0629,-6.0611,-6.0559,-6.0557,-6.0555,-6.0553,0,-6.031,-6.0279,-6.0418,-6.0422,-6.0426,-6.0528,-6.053,-6.0607,-6.0589,-6.0692,-6.0713,-6.0686,-6.0767,-6.0732,-6.0817,-6.0796,-6.0963,-6.093,-6.0955,-6.0947,-6.1073,-6.1062,-6.1484,-6.1537,-6.1146,-6.115,-6.1153,0,-6.0499,-6.0593,-6.0607,-6.0655,-6.0671,-6.0749,-6.0792,-6.0739,-6.0787,-6.0825,-6.0898,-6.0971,-6.1028,-6.1162,-6.115,-6.1215,-6.1184,-6.1328,-6.1193,-6.1208,-6.1188,-6.1183,-6.1193,-6.1355,-6.136,-6.1363,-6.1366,0,-6.0837,-6.0817,-6.0881,-6.0942,-6.0995,-6.104,-6.1078,-6.1122,-6.107,-6.1128,-6.121,-6.1255,-6.1341,-6.1417,-6.1474,-6.1483,-6.1418,-6.1409,-6.1441,-6.146,-6.1471,-6.1468,-6.103,-6.1399,-6.1396,-6.1394,-6.1392,-6.139,-6.1088,-6.1167,-6.119,-6.1265,-6.1288,-6.1325,-6.1397,-6.1389,-6.1457,-6.1524,-6.1488,-6.1584,-6.1609,-6.1679,-6.1697,-6.1772,-6.1715,-6.1762,-6.1774,-6.1786,-6.1804,-6.1458,-6.1782,-6.1781,-6.178,-6.1779,-6.1778,0,-6.1423,-6.1432,-6.1502,-6.1558,-6.1617,-6.1549,-6.1587,-6.1642,-6.1727,-6.1756,-6.1813,-6.1908,-6.198,-6.1974,-6.204,-6.2101,-6.2073,-6.2121,-6.2116,-6.212,-6.185,-6.1816,-6.2143,-6.2143,-6.2143,-6.2143,-6.2143,-6.2142,-6.1604,-6.1735,-6.1718,-6.186,-6.1868,-6.1962,-6.199,-6.2024,-6.2046,-6.2156,-6.2216,-6.2211,-6.2226,-6.2293,-6.2357,-6.2353,-6.2382,-6.2441,-6.2427,-6.2175,-6.2139,-6.2104,-6.2072,-6.2448,-6.2448,-6.2691,-6.2693,-6.2695]},{"header":{"parameterUnit":"m.s-1","parameterCategory":1,"la1":30.2991,"la2":30.254,"lo1":-89.0895,"lo2":-89.0444,"dy":0.0017,"dx":0.0017,"nx":28,"ny":28,"refTime":"2024-12-13T09:00:00:Z","depth":0,"parameterNumber":3,"parameterNumberName":"V-component_of_WINDS"},"data":[0,0,0,0,0,0,0,0,0,0,0,0,0,0,0,0,0,0,0,0,0,0,0,0,0,0,0,0,0,0,0,0,0,0,0,0,0,0,0,0,0,0,0,0,0,0,0,0,0,0,0,0,0,0,0,0,0,0,-2.2088,-2.2087,0,-2.205,-2.205,-2.2049,-2.1987,-2.1986,-2.1985,-2.1984,-2.1946,-2.1946,-2.1946,0,0,0,0,0,0,0,0,0,0,0,0,0,-2.2104,-2.2105,-2.2088,-2.2087,-2.2087,-2.205,-2.205,-2.2049,-2.1987,-2.1986,-2.1984,-2.1983,-2.1946,-2.1946,-2.1946,0,0,0,0,0,0,0,0,0,0,0,0,0,-2.2085,-2.2105,-2.2088,-2.2051,-2.2048,-2.205,-2.205,-2.2049,-2.1988,-2.1986,-2.1984,-2.1982,-2.1946,-2.1946,-2.1946,-2.1982,0,0,-2.1947,-2.1947,0,0,0,0,0,0,0,0,-2.2086,-2.2085,-2.2057,-2.2054,-2.205,-2.2022,-2.2042,-2.2027,-2.1988,-2.201,-2.1984,-2.1982,-2.1973,-2.1971,-2.1967,-2.198,-2.1979,-2.1947,-2.1947,-2.1947,-2.1947,0,0,0,0,0,0,0,-2.2088,-2.2086,-2.2073,-2.2057,-2.2052,-2.2037,-2.2032,-2.2039,-2.2002,-2.2008,-2.2004,-2.2,-2.197,-2.1967,-2.1966,-2.1978,-2.1947,-2.1947,-2.1947,-2.1947,-2.2016,-2.2017,0,0,0,0,0,0,-2.2095,-2.2087,-2.2074,-2.2072,-2.2064,-2.2038,-2.2033,-2.2032,-2.2002,-2.1995,-2.2002,-2.1997,-2.1968,-2.1966,-2.1965,-2.2002,-2.1947,-2.1947,-2.1947,-2.2014,-2.2016,-2.2018,0,0,0,0,0,0,-2.2095,-2.2094,-2.2076,-2.2078,-2.2075,-2.2039,-2.204,-2.2033,-2.2029,-2.1996,-2.199,-2.2005,-2.1967,-2.1964,-2.1977,-2.2,-2.1947,-2.1947,-2.2012,-2.2015,-2.2017,-2.208,0,0,0,0,0,0,-2.2096,-2.2095,-2.2108,-2.2079,-2.2075,-2.209,-2.2041,-2.2033,-2.203,-2.2024,-2.1998,-2.1992,-2.1965,-2.1978,-2.1978,-2.2,-2.1947,-2.201,-2.2013,-2.2016,-2.2075,-2.2084,-2.2092,0,0,0,0,0,-2.2097,-2.2128,-2.2109,-2.2108,-2.2091,-2.2091,-2.2089,-2.2056,-2.2032,-2.2045,-2.2023,-2.1993,-2.1998,-2.198,-2.1979,-2.2001,-2.2008,-2.2012,-2.2016,-2.2072,-2.2082,-2.2091,0,0,0,0,0,0,-2.2161,-2.2123,-2.2102,-2.2125,-2.2112,-2.2081,-2.2096,-2.2069,-2.2063,-2.2057,-2.2018,-2.2013,-2.2031,-2.2017,-2.1997,-2.2033,-2.1998,-2.2002,-2.2041,-2.2051,-2.2059,-2.2061,-2.1947,0,0,0,0,0,-2.2178,-2.2181,-2.2148,-2.2171,-2.2166,-2.2132,-2.2131,-2.2107,-2.2092,-2.2086,-2.2065,-2.2052,-2.205,-2.205,-2.2046,-2.2073,-2.2066,-2.2088,-2.2096,-2.2103,-2.2107,-2.2118,-2.2127,-2.2031,-2.2031,-2.2031,0,0,-2.2213,-2.2193,-2.2197,-2.2184,-2.2171,-2.2174,-2.2128,-2.2134,-2.2136,-2.2087,-2.2098,-2.2082,-2.2064,-2.2084,-2.2091,-2.2073,-2.2132,-2.2108,-2.2114,-2.2114,-2.2123,-2.2132,-2.214,-2.2033,-2.2033,-2.2033,0,0,-2.2278,-2.2264,-2.228,-2.2268,-2.2248,-2.2225,-2.2229,-2.2202,-2.2189,-2.2199,-2.2162,-2.2163,-2.2162,-2.215,-2.2144,-2.2202,-2.2174,-2.2202,-2.2244,-2.2256,-2.2263,-2.227,-2.2289,-2.2297,-2.2206,-2.2206,-2.2206,0,-2.2324,-2.2328,-2.2293,-2.2301,-2.2295,-2.225,-2.2266,-2.2255,-2.2236,-2.2233,-2.2213,-2.2208,-2.2193,-2.2208,-2.2222,-2.2219,-2.2222,-2.2205,-2.2265,-2.2271,-2.2277,-2.2295,-2.2303,-2.221,-2.2209,-2.2209,-2.2209,0,-2.2384,-2.2388,-2.2404,-2.2385,-2.2381,-2.2394,-2.2359,-2.236,-2.2336,-2.2315,-2.2325,-2.2305,-2.2296,-2.2298,-2.2275,-2.2309,-2.2298,-2.2272,-2.2237,-2.229,-2.2306,-2.2313,-2.2215,-2.2214,-2.2213,-2.2212,0,0,-2.249,-2.245,-2.2456,-2.2446,-2.242,-2.2422,-2.2432,-2.2422,-2.2423,-2.241,-2.2417,-2.2415,-2.239,-2.2383,-2.2359,-2.2369,-2.2414,-2.2341,-2.234,-2.2354,-2.2449,-2.2468,-2.2477,-2.2396,-2.2397,-2.2398,-2.245,0,-2.2549,-2.2563,-2.253,-2.2552,-2.2554,-2.251,-2.2518,-2.2502,-2.2483,-2.2481,-2.246,-2.2458,-2.2427,-2.2422,-2.243,-2.2407,-2.2433,-2.2403,-2.24,-2.2401,-2.2405,-2.2486,-2.2506,-2.2557,-2.2457,-2.2458,-2.2458,0,-2.262,-2.261,-2.2632,-2.2602,-2.2602,-2.261,-2.2597,-2.2597,-2.2578,-2.2563,-2.2554,-2.2525,-2.2531,-2.2497,-2.2505,-2.2485,-2.2482,-2.2471,-2.2472,-2.247,-2.2432,-2.2485,-2.2573,-2.258,-2.2468,-2.2468,-2.2467,0,-2.2693,-2.2685,-2.2696,-2.2689,-2.2656,-2.2662,-2.2649,-2.2628,-2.2624,-2.2613,-2.2609,-2.26,-2.2595,-2.2588,-2.2556,-2.2534,-2.2567,-2.2531,-2.2554,-2.2555,-2.2563,-2.2562,-2.265,-2.2562,-2.2562,-2.2562,-2.2562,0,-2.2761,-2.2776,-2.2728,-2.2735,-2.275,-2.2712,-2.2727,-2.2709,-2.2691,-2.2693,-2.2655,-2.2658,-2.2617,-2.2615,-2.259,-2.26,-2.2598,-2.2585,-2.2578,-2.2588,-2.259,-2.2585,-2.258,-2.2564,-2.2564,-2.2563,-2.2563,0,-2.2845,-2.2814,-2.2823,-2.2791,-2.2783,-2.2795,-2.2766,-2.2771,-2.2748,-2.2752,-2.275,-2.2715,-2.271,-2.2678,-2.2667,-2.265,-2.2668,-2.2655,-2.2675,-2.267,-2.2694,-2.2692,-2.2782,-2.2791,-2.2698,-2.2699,-2.27,0,-2.2891,-2.2901,-2.2869,-2.2867,-2.2855,-2.2853,-2.2848,-2.2811,-2.2807,-2.2785,-2.2793,-2.2785,-2.2777,-2.2772,-2.2745,-2.2735,-2.2721,-2.2753,-2.2719,-2.2728,-2.272,-2.2719,-2.272,-2.276,-2.2761,-2.2762,-2.2763,0,-2.2974,-2.2958,-2.2952,-2.294,-2.2935,-2.2924,-2.2911,-2.2912,-2.287,-2.2868,-2.2863,-2.2856,-2.2844,-2.2836,-2.2822,-2.2807,-2.2778,-2.2774,-2.2778,-2.2788,-2.2798,-2.2792,-2.2693,-2.2772,-2.2771,-2.277,-2.277,-2.2769,-2.304,-2.3046,-2.3023,-2.3018,-2.3003,-2.2991,-2.2994,-2.2971,-2.2966,-2.2952,-2.293,-2.2928,-2.2907,-2.2884,-2.2872,-2.2869,-2.2852,-2.286,-2.2861,-2.2863,-2.2868,-2.2799,-2.2867,-2.2866,-2.2866,-2.2866,-2.2866,0,-2.312,-2.3103,-2.3098,-2.308,-2.3075,-2.3047,-2.3031,-2.3029,-2.3026,-2.301,-2.3002,-2.2995,-2.2987,-2.2959,-2.2948,-2.2951,-2.2937,-2.2949,-2.2948,-2.2945,-2.2884,-2.2881,-2.296,-2.296,-2.296,-2.296,-2.296,-2.296,-2.3161,-2.3169,-2.315,-2.315,-2.3133,-2.313,-2.3123,-2.3111,-2.3097,-2.3091,-2.3084,-2.3065,-2.3043,-2.303,-2.3021,-2.3013,-2.301,-2.3027,-2.3014,-2.2958,-2.2949,-2.2941,-2.2937,-2.3027,-2.3027,-2.3075,-2.3075,-2.3075]}]]